This is the latest recevied weather packets stored in our database for station/object K7DC. If no packets are shown the sender has not sent any weather packets the latest 10 day(s).
| Time | Temp. | Humidity | Pressure | Rain* | Wind** | Luminosity | Snow |
|---|---|---|---|---|---|---|---|
| 1777965828 | 14.44° C | 93% | 1015.5 hPa | 4.83 mm | - | 0 W/m² | - |
| 1777965524 | 14.44° C | 93% | 1015.6 hPa | 3.05 mm | - | 0 W/m² | - |
| 1777965221 | 14.44° C | 92% | 1015.5 hPa | 3.05 mm | - | 0 W/m² | - |
| 1777964919 | 14.44° C | 93% | 1015.6 hPa | 3.05 mm | - | 0 W/m² | - |
| 1777964615 | 14.44° C | 93% | 1015.4 hPa | 3.05 mm | - | 0 W/m² | - |
| 1777964310 | 14.44° C | 93% | 1015.5 hPa | 4.32 mm | - | 0 W/m² | - |
| 1777964007 | 14.44° C | 93% | 1015.9 hPa | 3.05 mm | - | 0 W/m² | - |
| 1777963705 | 14.44° C | 92% | 1015.7 hPa | 3.56 mm | - | 0 W/m² | - |
| 1777963401 | 14.44° C | 92% | 1015.4 hPa | 3.05 mm | - | 0 W/m² | - |
| 1777963100 | 14.44° C | 92% | 1015.4 hPa | 3.05 mm | - | 0 W/m² | - |
| 1777962795 | 14.44° C | 92% | 1015.3 hPa | 1.78 mm | - | 0 W/m² | - |
| 1777962492 | 14.44° C | 92% | 1015.3 hPa | 1.27 mm | - | 0 W/m² | - |
| 1777962190 | 14.44° C | 92% | 1015.3 hPa | 0 mm | - | 0 W/m² | - |
| 1777961886 | 14.44° C | 92% | 1015.3 hPa | 1.78 mm | - | 0 W/m² | - |
| 1777961584 | 14.44° C | 92% | 1015.2 hPa | 3.05 mm | - | 0 W/m² | - |
| 1777961282 | 14.44° C | 92% | 1015.4 hPa | 3.05 mm | - | 0 W/m² | - |
| 1777960979 | 14.44° C | 92% | 1015.4 hPa | 3.05 mm | - | 0 W/m² | - |
| 1777960674 | 14.44° C | 91% | 1015.5 hPa | 3.05 mm | - | 0 W/m² | - |
| 1777960370 | 14.44° C | 91% | 1015.4 hPa | 3.05 mm | - | 0 W/m² | - |
| 1777960068 | 14.44° C | 91% | 1015.5 hPa | 3.05 mm | - | 0 W/m² | - |
| 1777959765 | 14.44° C | 91% | 1015.4 hPa | 0 mm | - | 0 W/m² | - |
| 1777959463 | 14.44° C | 90% | 1015.2 hPa | 0 mm | - | 0 W/m² | - |
| 1777959160 | 14.44° C | 89% | 1015.1 hPa | 1.27 mm | - | 0 W/m² | - |
| 1777958857 | 14.44° C | 88% | 1015.2 hPa | 0 mm | - | 0 W/m² | - |
| 1777958554 | 14.44° C | 86% | 1015 hPa | 0 mm | - | 0 W/m² | - |
* Rain latest hour (hover to see other rain measurements)
** Current wind speed in m/s (hover to see current wind gust speed)